Atlantic - Newfoundland: Past 24 Hour Conditions

 

Natashquan Airport

11:00 PM EST 26 February 2015
Disclaimer

This table is a summary of hourly weather conditions for the past 24 hours.
Please note that these observations might not always be representative of weather conditions over their associated marine area.

Date / Time
(EST)
Wind(knots) Conditions Visibility(km) Pressure(kPa) Air tempC) Relative humidity(%) Dew pointC) Wind Chill
26 February 2015
23:00 NNW 2 Clear 16 101.2 -20 86 -22 -23
22:00 WNW 3 Mainly Clear 16 101.2 -18 89 -20 -22
21:00 NW 5 Mostly Cloudy 16 101.2 -17 91 -18 -23
20:00 WNW 6 Mostly Cloudy 16 101.2 -15 91 -16 -22
19:00 WNW 7 Clear 16 101.1 -13 89 -15 -20
18:00 WNW 11 Partly Cloudy 16 101.0 -11 86 -13 -19
17:00 W 16 Clear 16 100.9 -10 85 -12 -20
16:00 WNW 13 gust 19 Sunny 13 100.8 -9 82 -12 -18
15:00 W 14 Light Snow 16 100.8 -9 81 -11 -17
14:00 W 17 gust 24 Light Snow 11 100.7 -8 81 -11 -17
13:00 W 17 gust 24 Mainly Sunny 16 100.6 -8 80 -11 -17
12:00 W 17 gust 22 Sunny 16 100.6 -7 71 -12 -16
11:00 W 16 gust 21 Sunny 16 100.5 -7 76 -11 -16
10:00 W 12 gust 18 Sunny 16 100.4 -7 73 -11 -15
9:00 W 11 gust 16 Mainly Sunny 16 100.3 -8 73 -12 -16
8:00 W 12 Mostly Cloudy 16 100.2 -9 78 -12 -17
7:00 W 7 Partly Cloudy 16 100.1 -11 86 -13 -18
6:00 WNW 7 Sunny 16 100.0 -10 87 -12 -17
5:00 W 9 Clear 16 99.8 -9 87 -11 -16
4:00 WNW 11 Light Snow 10 99.6 -9 90 -10 -16
3:00 NW 14 Light Snow 5 99.5 -8 89 -10 -16
2:00 NNW 17 Light Snow 6 99.4 -8 87 -10 -17
1:00 N 13 gust 18 Light Snow 3 99.3 -8 90 -9 -16
0:00 NE 18 gust 27 Light Snow 1 99.2 -7 92 -8 -17
25 February 2015
23:00 NE 17 gust 22 Light Snow 1 99.3 -7 93 -8 -16

Zoom-in to make a selection

Map of Atlantic - Newfoundland marine weather areas Southwestern Grand Banks - 44138 Banquereau - 44139 Tail of the Bank - 44140 Nickerson Bank - 44251 Northeast Burgeo Bank - 44255 Blanc-Sablon Airport Cap Whittle Chevery Natashquan Airport Heath Point Miscou Island Grand Étang Ingonish Beach North Mountain St.Paul Island J.A. Douglas McCurdy Sydney Airport Charlottetown Airport East Point North Cape Argentia Bonavista Burgeo Cape Race Corner Brook Daniel's Harbour Englee Ferolle Point La Scie Port aux Basques Rocky Harbour Sagona Island St. Anthony Airport St. John's Int'l Airport St. Lawrence Stephenville Airport Twillingate Winterland Wreckhouse Cartwright Airport Mary's Harbour Grates Cove Pool's Island Marticot Island Long Pond Îles de la Madeleine Airport
Legend:
buoy Buoy
land station Land Station

Atlantic - Newfoundland Area

Another Region

What we are doing

Date modified: